| time (UTC) | temp C | wind direction | speed KPH | gust KPH | rain 1hr cm | rain 24hr cm | rain mn cm | humidity % | barometer mb |
| 20260502152047 | 15 | 242 | 16.1 | 25.7 | 0.00 | 0.00 | 0.00 | 46 | 1016.9 |
| 20260502151558 | 14 | 227 | 11.3 | 25.7 | 0.00 | 0.00 | 0.00 | 47 | 1016.9 |
| 20260502151050 | 14 | 217 | 11.3 | 25.7 | 0.00 | 0.00 | 0.00 | 46 | 1017.0 |
| 20260502150552 | 14 | 260 | 9.7 | 22.5 | 0.00 | 0.00 | 0.00 | 48 | 1017.0 |
| 20260502130549 | 6 | 202 | 4.8 | 12.9 | 0.00 | 0.00 | 0.00 | 70 | 1018.1 |
| 20260502123547 | 3 | 219 | 4.8 | 11.3 | 0.00 | 0.00 | 0.00 | 75 | 1018.3 |
| 20260502123112 | 3 | 230 | 4.8 | 11.3 | 0.00 | 0.00 | 0.00 | 75 | 1018.4 |
| 20260502122548 | 2 | 204 | 6.4 | 11.3 | 0.00 | 0.00 | 0.00 | 76 | 1018.4 |
| 20260502122052 | 2 | 214 | 4.8 | 12.9 | 0.00 | 0.00 | 0.00 | 76 | 1018.4 |
| 20260502121557 | 2 | 219 | 4.8 | 12.9 | 0.00 | 0.00 | 0.00 | 77 | 1018.4 |
| 20260502121051 | 1 | 232 | 6.4 | 11.3 | 0.00 | 0.00 | 0.00 | 78 | 1018.3 |
| 20260502120549 | 1 | 184 | 3.2 | 8.0 | 0.00 | 0.00 | 0.00 | 78 | 1018.4 |
| 20260502120111 | 1 | 205 | 3.2 | 8.0 | 0.00 | 0.00 | 0.00 | 78 | 1018.4 |
| 20260502115548 | 1 | 217 | 3.2 | 8.0 | 0.00 | 0.00 | 0.00 | 78 | 1018.4 |
| 20260502115048 | 0 | 221 | 1.6 | 8.0 | 0.00 | 0.00 | 0.00 | 78 | 1018.5 |
| 20260502114552 | 0 | 226 | 3.2 | 9.7 | 0.00 | 0.00 | 0.00 | 78 | 1018.5 |
| 20260502114048 | 0 | 189 | 4.8 | 9.7 | 0.00 | 0.00 | 0.00 | 77 | 1018.6 |
| 20260502113548 | 1 | 213 | 4.8 | 9.7 | 0.00 | 0.00 | 0.00 | 77 | 1018.7 |
| 20260502113054 | 1 | 225 | 3.2 | 9.7 | 0.00 | 0.00 | 0.00 | 78 | 1018.7 |
| 20260502112547 | 0 | 208 | 4.8 | 9.7 | 0.00 | 0.00 | 0.00 | 78 | 1018.6 |
| 20260502112048 | 0 | 203 | 3.2 | 8.0 | 0.00 | 0.00 | 0.00 | 78 | 1018.7 |
| 20260502111610 | 0 | 211 | 4.8 | 9.7 | 0.00 | 0.00 | 0.00 | 79 | 1018.7 |
| 20260502111048 | 0 | 198 | 4.8 | 11.3 | 0.00 | 0.00 | 0.00 | 79 | 1018.6 |
| 20260502110548 | 0 | 200 | 3.2 | 11.3 | 0.00 | 0.00 | 0.00 | 80 | 1018.7 |
| 20260502110100 | 0 | 217 | 4.8 | 11.3 | 0.00 | 0.00 | 0.00 | 81 | 1018.8 |
| 20260502105549 | 0 | 229 | 4.8 | 9.7 | 0.00 | 0.00 | 0.00 | 82 | 1018.8 |
| 20260502105051 | 0 | 239 | 4.8 | 8.0 | 0.00 | 0.00 | 0.00 | 82 | 1018.8 |
| 20260502104556 | 0 | 217 | 3.2 | 6.4 | 0.00 | 0.00 | 0.00 | 82 | 1018.8 |
| 20260502104048 | 0 | 242 | 3.2 | 6.4 | 0.00 | 0.00 | 0.00 | 81 | 1018.8 |
| 20260502103551 | 0 | 226 | 1.6 | 4.8 | 0.00 | 0.00 | 0.00 | 81 | 1019.0 |
| 20260502103059 | 0 | 214 | 0.0 | 4.8 | 0.00 | 0.00 | 0.00 | 81 | 1019.0 |
| 20260502102549 | 0 | 224 | 0.0 | 6.4 | 0.00 | 0.00 | 0.00 | 81 | 1019.0 |
| 20260502102049 | 0 | 0 | 1.6 | 6.4 | 0.00 | 0.00 | 0.00 | 81 | 1019.1 |
| 20260502101602 | 0 | 221 | 1.6 | 4.8 | 0.00 | 0.00 | 0.00 | 81 | 1019.1 |
| 20260502101047 | 0 | 221 | 1.6 | 4.8 | 0.00 | 0.00 | 0.00 | 81 | 1019.1 |
| 20260502100548 | 0 | 234 | 1.6 | 6.4 | 0.00 | 0.00 | 0.00 | 81 | 1019.1 |
| 20260502100104 | 0 | 0 | 1.6 | 6.4 | 0.00 | 0.00 | 0.00 | 81 | 1019.2 |
| 20260502091050 | 0 | 219 | 1.6 | 6.4 | 0.00 | 0.00 | 0.00 | 80 | 1019.3 |
| 20260502090550 | 0 | 223 | 1.6 | 8.0 | 0.00 | 0.00 | 0.00 | 80 | 1019.3 |
| 20260502071048 | 0 | 238 | 4.8 | 9.7 | 0.00 | 0.00 | 0.00 | 77 | 1019.8 |
| 20260502070551 | 0 | 227 | 3.2 | 8.0 | 0.00 | 0.00 | 0.00 | 76 | 1019.8 |
| 20260502070107 | 1 | 197 | 3.2 | 6.4 | 0.00 | 0.00 | 0.00 | 75 | 1019.8 |
| 20260502065549 | 1 | 209 | 3.2 | 6.4 | 0.00 | 0.00 | 0.00 | 75 | 1019.6 |
| 20260502065048 | 1 | 231 | 1.6 | 11.3 | 0.00 | 0.00 | 0.00 | 75 | 1019.7 |
| 20260502064557 | 1 | 231 | 3.2 | 11.3 | 0.00 | 0.00 | 0.00 | 76 | 1019.7 |
| 20260502064048 | 1 | 227 | 4.8 | 11.3 | 0.00 | 0.00 | 0.00 | 76 | 1019.9 |
| 20260502063548 | 1 | 221 | 4.8 | 8.0 | 0.00 | 0.00 | 0.00 | 77 | 1020.0 |
| 20260502063057 | 1 | 236 | 4.8 | 9.7 | 0.00 | 0.00 | 0.00 | 77 | 1019.9 |
| 20260502062548 | 1 | 250 | 3.2 | 9.7 | 0.00 | 0.00 | 0.00 | 78 | 1020.0 |
| 20260502062048 | 1 | 234 | 3.2 | 6.4 | 0.00 | 0.00 | 0.00 | 78 | 1020.0 |
| 20260502061554 | 1 | 234 | 3.2 | 6.4 | 0.00 | 0.00 | 0.00 | 77 | 1020.0 |
| 20260502061051 | 1 | 234 | 1.6 | 6.4 | 0.00 | 0.00 | 0.00 | 78 | 1020.0 |
| 20260502060548 | 1 | 253 | 3.2 | 9.7 | 0.00 | 0.00 | 0.00 | 78 | 1020.0 |
| 20260502060058 | 1 | 232 | 4.8 | 11.3 | 0.00 | 0.00 | 0.00 | 78 | 1020.0 |
| 20260502055550 | 1 | 233 | 4.8 | 11.3 | 0.00 | 0.00 | 0.00 | 77 | 1020.0 |
| 20260502055048 | 1 | 219 | 4.8 | 9.7 | 0.00 | 0.00 | 0.00 | 76 | 1020.1 |
| 20260502054554 | 1 | 240 | 6.4 | 8.0 | 0.00 | 0.00 | 0.00 | 75 | 1020.0 |
| 20260502054048 | 1 | 234 | 3.2 | 6.4 | 0.00 | 0.00 | 0.00 | 75 | 1020.1 |
| 20260502053550 | 1 | 237 | 1.6 | 4.8 | 0.00 | 0.00 | 0.00 | 75 | 1020.1 |
| 20260502053102 | 1 | 243 | 1.6 | 4.8 | 0.00 | 0.00 | 0.00 | 75 | 1020.2 |
| 20260502052550 | 1 | 243 | 1.6 | 4.8 | 0.00 | 0.00 | 0.00 | 75 | 1020.3 |
| 20260502052052 | 1 | 243 | 1.6 | 4.8 | 0.00 | 0.00 | 0.00 | 75 | 1020.2 |
| 20260502051603 | 1 | 253 | 1.6 | 4.8 | 0.00 | 0.00 | 0.00 | 75 | 1020.3 |
| 20260502051048 | 1 | 244 | 1.6 | 9.7 | 0.00 | 0.00 | 0.00 | 75 | 1020.2 |
| 20260502050550 | 2 | 256 | 3.2 | 9.7 | 0.00 | 0.00 | 0.00 | 75 | 1020.2 |
| 20260502050056 | 2 | 261 | 6.4 | 9.7 | 0.00 | 0.00 | 0.00 | 74 | 1020.2 |
| 20260502045553 | 2 | 259 | 4.8 | 6.4 | 0.00 | 0.00 | 0.00 | 74 | 1020.1 |
| 20260502045048 | 2 | 249 | 3.2 | 6.4 | 0.00 | 0.00 | 0.00 | 73 | 1020.2 |
| 20260502044556 | 2 | 249 | 3.2 | 4.8 | 0.00 | 0.00 | 0.00 | 72 | 1020.2 |
| 20260502044052 | 2 | 249 | 3.2 | 4.8 | 0.00 | 0.00 | 0.00 | 72 | 1020.2 |
| 20260502043553 | 3 | 249 | 3.2 | 4.8 | 0.00 | 0.00 | 0.00 | 71 | 1020.1 |
| 20260502043058 | 3 | 249 | 3.2 | 4.8 | 0.00 | 0.00 | 0.00 | 70 | 1020.1 |
| 20260502042549 | 3 | 249 | 3.2 | 6.4 | 0.00 | 0.00 | 0.00 | 69 | 1020.2 |
| 20260502042052 | 3 | 249 | 3.2 | 6.4 | 0.00 | 0.00 | 0.00 | 68 | 1020.2 |
| 20260502041556 | 3 | 257 | 3.2 | 6.4 | 0.00 | 0.00 | 0.00 | 66 | 1020.3 |
| 20260502041052 | 3 | 245 | 3.2 | 6.4 | 0.00 | 0.00 | 0.00 | 65 | 1020.3 |
| 20260502040547 | 3 | 248 | 3.2 | 6.4 | 0.00 | 0.00 | 0.00 | 65 | 1020.3 |
| 20260502040106 | 3 | 237 | 3.2 | 6.4 | 0.00 | 0.00 | 0.00 | 65 | 1020.3 |
| 20260502035548 | 4 | 242 | 1.6 | 4.8 | 0.00 | 0.00 | 0.00 | 63 | 1020.3 |
| 20260502035048 | 4 | 301 | 1.6 | 3.2 | 0.00 | 0.00 | 0.00 | 62 | 1020.3 |
| 20260502034558 | 5 | 301 | 0.0 | 3.2 | 0.00 | 0.00 | 0.00 | 60 | 1020.3 |
| 20260502034048 | 5 | 301 | 1.6 | 3.2 | 0.00 | 0.00 | 0.00 | 60 | 1020.2 |
| 20260502033550 | 5 | 301 | 1.6 | 3.2 | 0.00 | 0.00 | 0.00 | 61 | 1020.3 |
| 20260502033057 | 5 | 301 | 0.0 | 3.2 | 0.00 | 0.00 | 0.00 | 60 | 1020.3 |
| 20260502032548 | 5 | 301 | 1.6 | 4.8 | 0.00 | 0.00 | 0.00 | 62 | 1020.3 |
| 20260502032048 | 5 | 301 | 1.6 | 4.8 | 0.00 | 0.00 | 0.00 | 60 | 1020.2 |
| 20260502031556 | 5 | 301 | 1.6 | 4.8 | 0.00 | 0.00 | 0.00 | 60 | 1020.2 |
| 20260502031052 | 5 | 20 | 1.6 | 3.2 | 0.00 | 0.00 | 0.00 | 60 | 1020.2 |
| 20260502030548 | 5 | 0 | 0.0 | 1.6 | 0.00 | 0.00 | 0.00 | 60 | 1020.3 |
| 20260502025547 | 5 | 0 | 0.0 | 0.0 | 0.00 | 0.00 | 0.00 | 60 | 1020.1 |
| 20260502025049 | 5 | 0 | 0.0 | 1.6 | 0.00 | 0.00 | 0.00 | 60 | 1020.2 |
| 20260502024558 | 5 | 0 | 0.0 | 1.6 | 0.00 | 0.00 | 0.00 | 60 | 1020.2 |
| 20260502024050 | 5 | 0 | 0.0 | 0.0 | 0.00 | 0.00 | 0.00 | 60 | 1020.2 |
| 20260502023548 | 5 | 0 | 0.0 | 0.0 | 0.00 | 0.00 | 0.00 | 59 | 1020.2 |
| 20260502023059 | 5 | 0 | 0.0 | 0.0 | 0.00 | 0.00 | 0.00 | 60 | 1020.1 |
| 20260502022548 | 6 | 0 | 0.0 | 0.0 | 0.00 | 0.00 | 0.00 | 59 | 1020.0 |
| 20260502022048 | 6 | 0 | 0.0 | 0.0 | 0.00 | 0.00 | 0.00 | 59 | 1020.1 |
| 20260502021552 | 6 | 0 | 0.0 | 0.0 | 0.00 | 0.00 | 0.00 | 59 | 1020.0 |
| 20260502021048 | 6 | 0 | 0.0 | 0.0 | 0.00 | 0.00 | 0.00 | 60 | 1019.9 |
| 20260502020549 | 6 | 0 | 0.0 | 0.0 | 0.00 | 0.00 | 0.00 | 58 | 1019.9 |
| 20260502020058 | 6 | 0 | 0.0 | 0.0 | 0.00 | 0.00 | 0.00 | 57 | 1019.9 |
| 20260502015548 | 7 | 0 | 0.0 | 0.0 | 0.00 | 0.00 | 0.00 | 54 | 1019.9 |
| 20260502015048 | 7 | 0 | 0.0 | 0.0 | 0.00 | 0.00 | 0.00 | 53 | 1019.8 |
| 20260502014556 | 7 | 0 | 0.0 | 0.0 | 0.00 | 0.00 | 0.00 | 53 | 1019.8 |
| 20260502014047 | 7 | 0 | 0.0 | 0.0 | 0.00 | 0.00 | 0.00 | 52 | 1019.7 |
| 20260502013549 | 8 | 0 | 0.0 | 0.0 | 0.00 | 0.00 | 0.00 | 51 | 1019.8 |
| 20260502013057 | 8 | 0 | 0.0 | 0.0 | 0.00 | 0.00 | 0.00 | 50 | 1019.8 |
| 20260502012550 | 8 | 0 | 0.0 | 3.2 | 0.00 | 0.00 | 0.00 | 50 | 1019.7 |
| 20260502012050 | 8 | 0 | 0.0 | 3.2 | 0.00 | 0.00 | 0.00 | 49 | 1019.6 |
| 20260502011551 | 9 | 0 | 0.0 | 3.2 | 0.00 | 0.00 | 0.00 | 48 | 1019.7 |
| 20260502011047 | 10 | 0 | 0.0 | 0.0 | 0.00 | 0.00 | 0.00 | 48 | 1019.6 |
| 20260502010549 | 10 | 0 | 0.0 | 1.6 | 0.00 | 0.00 | 0.00 | 48 | 1019.7 |
| 20260502010054 | 10 | 0 | 0.0 | 6.4 | 0.00 | 0.00 | 0.00 | 48 | 1019.6 |
| 20260502005550 | 10 | 291 | 0.0 | 6.4 | 0.00 | 0.13 | 0.00 | 46 | 1019.6 |
| 20260502005048 | 10 | 0 | 0.0 | 3.2 | 0.00 | 0.13 | 0.00 | 45 | 1019.6 |
| 20260502004554 | 10 | 0 | 0.0 | 4.8 | 0.00 | 0.13 | 0.00 | 46 | 1019.6 |
| 20260502004051 | 10 | 0 | 0.0 | 4.8 | 0.00 | 0.13 | 0.00 | 46 | 1019.5 |
| 20260502003548 | 10 | 296 | 0.0 | 6.4 | 0.00 | 0.13 | 0.00 | 45 | 1019.5 |
| 20260502003052 | 10 | 176 | 1.6 | 6.4 | 0.00 | 0.13 | 0.00 | 44 | 1019.5 |
| 20260502002555 | 10 | 22 | 0.0 | 14.5 | 0.00 | 0.13 | 0.00 | 45 | 1019.5 |
| 20260502002048 | 10 | 275 | 3.2 | 14.5 | 0.00 | 0.13 | 0.00 | 46 | 1019.5 |
| 20260502001557 | 10 | 15 | 8.0 | 14.5 | 0.00 | 0.13 | 0.00 | 44 | 1019.5 |
| 20260502001050 | 11 | 15 | 8.0 | 14.5 | 0.00 | 0.13 | 0.00 | 44 | 1019.5 |
| 20260502000548 | 11 | 20 | 4.8 | 16.1 | 0.00 | 0.13 | 0.00 | 44 | 1019.4 |
| 20260502000058 | 11 | 17 | 4.8 | 16.1 | 0.00 | 0.13 | 0.00 | 45 | 1019.3 |
| 20260501235550 | 11 | 13 | 3.2 | 9.7 | 0.00 | 0.13 | 0.00 | 43 | 1019.3 |
| 20260501235052 | 11 | 355 | 1.6 | 9.7 | 0.00 | 0.13 | 0.00 | 41 | 1019.5 |
| 20260501234553 | 11 | 314 | 1.6 | 12.9 | 0.00 | 0.13 | 0.00 | 43 | 1019.5 |
| 20260501234048 | 11 | 23 | 3.2 | 14.5 | 0.00 | 0.13 | 0.00 | 41 | 1019.3 |
| 20260501233550 | 11 | 29 | 9.7 | 14.5 | 0.00 | 0.13 | 0.00 | 41 | 1019.4 |
| 20260501233053 | 12 | 360 | 1.6 | 8.0 | 0.00 | 0.13 | 0.00 | 43 | 1019.4 |
| 20260501232548 | 12 | 360 | 1.6 | 14.5 | 0.00 | 0.13 | 0.00 | 41 | 1019.4 |
| 20260501232047 | 12 | 300 | 1.6 | 17.7 | 0.00 | 0.13 | 0.00 | 44 | 1019.5 |
| 20260501231557 | 11 | 57 | 1.6 | 17.7 | 0.00 | 0.13 | 0.00 | 42 | 1019.5 |
| 20260501231047 | 11 | 338 | 4.8 | 16.1 | 0.00 | 0.13 | 0.00 | 44 | 1019.5 |
| 20260501230548 | 11 | 275 | 3.2 | 16.1 | 0.00 | 0.13 | 0.00 | 41 | 1019.5 |
| 20260501225549 | 11 | 36 | 4.8 | 16.1 | 0.00 | 0.13 | 0.00 | 44 | 1019.6 |
| 20260501225047 | 11 | 35 | 9.7 | 16.1 | 0.00 | 0.13 | 0.00 | 43 | 1019.6 |
| 20260501224552 | 11 | 324 | 3.2 | 27.4 | 0.00 | 0.13 | 0.00 | 44 | 1019.5 |
| 20260501224050 | 11 | 352 | 16.1 | 27.4 | 0.00 | 0.13 | 0.00 | 42 | 1019.5 |
| 20260501223547 | 11 | 25 | 6.4 | 17.7 | 0.00 | 0.13 | 0.00 | 43 | 1019.5 |
| 20260501223050 | 11 | 13 | 8.0 | 17.7 | 0.00 | 0.13 | 0.00 | 44 | 1019.5 |
| 20260501222552 | 11 | 15 | 1.6 | 17.7 | 0.00 | 0.13 | 0.00 | 44 | 1019.6 |
| 20260501222048 | 11 | 269 | 4.8 | 20.9 | 0.00 | 0.13 | 0.00 | 45 | 1019.7 |
| 20260501221558 | 11 | 19 | 14.5 | 22.5 | 0.00 | 0.13 | 0.00 | 42 | 1019.7 |
| 20260501221047 | 11 | 25 | 6.4 | 22.5 | 0.00 | 0.13 | 0.00 | 43 | 1019.7 |
| 20260501220547 | 11 | 17 | 8.0 | 17.7 | 0.00 | 0.13 | 0.00 | 45 | 1019.6 |
| 20260501215548 | 11 | 13 | 3.2 | 12.9 | 0.00 | 0.13 | 0.00 | 46 | 1019.7 |
| 20260501215051 | 11 | 39 | 4.8 | 12.9 | 0.00 | 0.13 | 0.00 | 47 | 1019.8 |
| 20260501214555 | 11 | 316 | 3.2 | 9.7 | 0.00 | 0.13 | 0.00 | 44 | 1019.7 |
| 20260501214048 | 11 | 0 | 3.2 | 9.7 | 0.00 | 0.13 | 0.00 | 44 | 1019.8 |
| 20260501213553 | 11 | 267 | 3.2 | 12.9 | 0.00 | 0.13 | 0.00 | 46 | 1019.7 |
| 20260501213101 | 11 | 301 | 1.6 | 17.7 | 0.00 | 0.13 | 0.00 | 44 | 1019.8 |
| 20260501212548 | 11 | 278 | 3.2 | 17.7 | 0.00 | 0.13 | 0.00 | 43 | 1019.9 |
| 20260501212051 | 11 | 34 | 4.8 | 12.9 | 0.00 | 0.13 | 0.00 | 46 | 1019.9 |
| 20260501211607 | 11 | 332 | 3.2 | 11.3 | 0.00 | 0.13 | 0.00 | 45 | 1019.9 |
| 20260501211048 | 11 | 253 | 4.8 | 11.3 | 0.00 | 0.13 | 0.00 | 45 | 1019.9 |
| 20260501210548 | 11 | 286 | 3.2 | 12.9 | 0.00 | 0.13 | 0.00 | 46 | 1020.0 |
| 20260501210054 | 11 | 0 | 4.8 | 12.9 | 0.00 | 0.13 | 0.00 | 46 | 1020.0 |
| 20260501205548 | 12 | 323 | 3.2 | 17.7 | 0.00 | 0.13 | 0.00 | 45 | 1020.1 |
| 20260501205050 | 11 | 332 | 3.2 | 32.2 | 0.00 | 0.13 | 0.00 | 46 | 1020.1 |
| 20260501204557 | 11 | 312 | 9.7 | 32.2 | 0.00 | 0.13 | 0.00 | 46 | 1020.1 |
| 20260501204047 | 11 | 37 | 3.2 | 19.3 | 0.00 | 0.13 | 0.00 | 46 | 1020.2 |
| 20260501203547 | 11 | 265 | 3.2 | 19.3 | 0.00 | 0.13 | 0.00 | 48 | 1020.1 |
| 20260501203059 | 11 | 352 | 6.4 | 19.3 | 0.00 | 0.13 | 0.00 | 48 | 1020.2 |
| 20260501202549 | 11 | 14 | 8.0 | 19.3 | 0.00 | 0.13 | 0.00 | 51 | 1020.2 |
| 20260501202050 | 11 | 36 | 6.4 | 19.3 | 0.00 | 0.13 | 0.00 | 49 | 1020.3 |
| 20260501201600 | 11 | 274 | 4.8 | 19.3 | 0.00 | 0.13 | 0.00 | 48 | 1020.2 |
| 20260501201048 | 10 | 254 | 8.0 | 16.1 | 0.00 | 0.13 | 0.00 | 53 | 1020.3 |
| 20260501200548 | 10 | 342 | 3.2 | 20.9 | 0.00 | 0.13 | 0.00 | 50 | 1020.3 |
| 20260501200055 | 10 | 22 | 12.9 | 20.9 | 0.00 | 0.13 | 0.00 | 50 | 1020.4 |
| 20260501195548 | 10 | 240 | 3.2 | 14.5 | 0.00 | 0.13 | 0.00 | 50 | 1020.3 |
| 20260501195047 | 10 | 336 | 4.8 | 19.3 | 0.00 | 0.13 | 0.00 | 53 | 1020.3 |
| 20260501194617 | 9 | 11 | 9.7 | 25.7 | 0.00 | 0.13 | 0.00 | 50 | 1020.4 |
| 20260501194048 | 10 | 34 | 14.5 | 25.7 | 0.00 | 0.13 | 0.00 | 51 | 1020.4 |
| 20260501193548 | 10 | 20 | 4.8 | 20.9 | 0.00 | 0.13 | 0.00 | 53 | 1020.5 |
| 20260501193054 | 10 | 17 | 6.4 | 22.5 | 0.00 | 0.13 | 0.00 | 50 | 1020.4 |
| 20260501192548 | 10 | 253 | 6.4 | 22.5 | 0.00 | 0.13 | 0.00 | 48 | 1020.4 |
| 20260501192049 | 10 | 18 | 14.5 | 22.5 | 0.00 | 0.13 | 0.00 | 51 | 1020.5 |
| 20260501191559 | 10 | 271 | 9.7 | 19.3 | 0.00 | 0.13 | 0.00 | 55 | 1020.4 |
| 20260501191048 | 10 | 21 | 8.0 | 20.9 | 0.00 | 0.13 | 0.00 | 50 | 1020.6 |
| 20260501190548 | 10 | 336 | 4.8 | 20.9 | 0.00 | 0.13 | 0.00 | 51 | 1020.5 |
| 20260501190057 | 9 | 348 | 12.9 | 20.9 | 0.00 | 0.13 | 0.00 | 51 | 1020.5 |
| 20260501185547 | 9 | 26 | 9.7 | 27.4 | 0.00 | 0.13 | 0.00 | 52 | 1020.6 |
| 20260501185047 | 9 | 17 | 6.4 | 27.4 | 0.00 | 0.13 | 0.00 | 51 | 1020.6 |
| 20260501184554 | 10 | 30 | 9.7 | 27.4 | 0.00 | 0.13 | 0.00 | 52 | 1020.6 |
| 20260501184048 | 9 | 26 | 11.3 | 22.5 | 0.00 | 0.13 | 0.00 | 52 | 1020.7 |
| 20260501183548 | 10 | 34 | 8.0 | 22.5 | 0.00 | 0.13 | 0.00 | 52 | 1020.7 |
| 20260501183050 | 9 | 19 | 6.4 | 17.7 | 0.00 | 0.13 | 0.00 | 52 | 1020.7 |
| 20260501182548 | 9 | 290 | 3.2 | 24.1 | 0.00 | 0.13 | 0.00 | 51 | 1020.6 |
| 20260501182048 | 9 | 49 | 11.3 | 24.1 | 0.00 | 0.13 | 0.00 | 49 | 1020.7 |
| 20260501181615 | 10 | 22 | 4.8 | 20.9 | 0.00 | 0.13 | 0.00 | 53 | 1020.7 |
| 20260501181048 | 9 | 279 | 8.0 | 20.9 | 0.00 | 0.13 | 0.00 | 55 | 1020.8 |
| 20260501180548 | 9 | 55 | 8.0 | 20.9 | 0.00 | 0.13 | 0.00 | 54 | 1020.8 |
| 20260501180052 | 8 | 30 | 12.9 | 20.9 | 0.00 | 0.13 | 0.00 | 50 | 1020.8 |
| 20260501175548 | 9 | 10 | 6.4 | 16.1 | 0.00 | 0.13 | 0.00 | 51 | 1020.7 |
| 20260501175047 | 9 | 335 | 4.8 | 16.1 | 0.00 | 0.13 | 0.00 | 57 | 1020.8 |
| 20260501174557 | 8 | 168 | 3.2 | 12.9 | 0.00 | 0.13 | 0.00 | 60 | 1020.7 |
| 20260501174049 | 8 | 254 | 4.8 | 22.5 | 0.00 | 0.13 | 0.00 | 55 | 1020.9 |
| 20260501173548 | 8 | 40 | 8.0 | 22.5 | 0.00 | 0.13 | 0.00 | 57 | 1021.0 |
| 20260501173110 | 8 | 32 | 8.0 | 22.5 | 0.00 | 0.13 | 0.00 | 52 | 1020.9 |
| 20260501172549 | 8 | 35 | 4.8 | 12.9 | 0.00 | 0.13 | 0.00 | 55 | 1021.0 |
| 20260501172049 | 8 | 300 | 4.8 | 19.3 | 0.00 | 0.13 | 0.00 | 54 | 1020.9 |
| 20260501171552 | 8 | 42 | 8.0 | 19.3 | 0.00 | 0.13 | 0.00 | 54 | 1020.9 |
| 20260501171049 | 8 | 34 | 8.0 | 19.3 | 0.00 | 0.13 | 0.00 | 56 | 1020.9 |
| 20260501170549 | 8 | 15 | 3.2 | 19.3 | 0.00 | 0.13 | 0.00 | 56 | 1021.0 |
| 20260501170052 | 8 | 34 | 4.8 | 24.1 | 0.00 | 0.13 | 0.00 | 54 | 1021.0 |
| 20260501165548 | 8 | 15 | 11.3 | 24.1 | 0.00 | 0.13 | 0.00 | 54 | 1021.1 |
| 20260501165048 | 8 | 9 | 11.3 | 24.1 | 0.00 | 0.13 | 0.00 | 57 | 1020.9 |
| 20260501164554 | 8 | 15 | 11.3 | 24.1 | 0.00 | 0.13 | 0.00 | 57 | 1021.0 |
| 20260501164047 | 8 | 331 | 12.9 | 24.1 | 0.00 | 0.13 | 0.00 | 55 | 1021.0 |
| 20260501163548 | 8 | 26 | 6.4 | 22.5 | 0.00 | 0.13 | 0.00 | 58 | 1020.9 |
| 20260501163054 | 8 | 27 | 8.0 | 22.5 | 0.00 | 0.13 | 0.00 | 61 | 1020.9 |
| 20260501162550 | 8 | 30 | 11.3 | 22.5 | 0.00 | 0.13 | 0.00 | 57 | 1021.0 |
| 20260501162048 | 7 | 11 | 11.3 | 22.5 | 0.00 | 0.13 | 0.00 | 60 | 1021.0 |
| 20260501161557 | 8 | 26 | 4.8 | 24.1 | 0.00 | 0.13 | 0.00 | 63 | 1020.9 |
| 20260501161050 | 7 | 305 | 12.9 | 24.1 | 0.00 | 0.13 | 0.00 | 60 | 1021.0 |
| 20260501160550 | 8 | 18 | 12.9 | 24.1 | 0.00 | 0.13 | 0.00 | 61 | 1021.0 |